When you browse on this site, cookies collect data to enhance your experience and personalize the content and advertising you see.
Visit our Privacy Policy to learn more. By continuing to use the site, you agree to this use of cookies and data.
  • en Suisse
  • Liste des pays
  • À 7 jours
  • Température de l'eau
  • Carte météo
  • Widgets météo
  • user-avatar
    Se connecter

    Météo par heure à Pleskachivka

    Ce jour, 25 Août, Dimanche

    Heure Température Précipitation Vent Pression Humidité
    00:00 +20°C° 0 mm 3 m/s 754 mmHg 68%
    01:00 +19°C° 0 mm 3 m/s 754 mmHg 70%
    02:00 +19°C° 0 mm 3 m/s 754 mmHg 71%
    03:00 +18°C° 0 mm 3 m/s 755 mmHg 72%
    04:00 +18°C° 0 mm 3 m/s 755 mmHg 72%
    05:00 +17°C° 0 mm 3 m/s 755 mmHg 73%
    06:00 +19°C° 0 mm 3 m/s 755 mmHg 67%
    07:00 +20°C° 0 mm 3 m/s 755 mmHg 61%
    08:00 +22°C° 0 mm 4 m/s 755 mmHg 55%
    09:00 +23°C° 0 mm 4 m/s 755 mmHg 49%
    10:00 +26°C° 0 mm 4 m/s 755 mmHg 44%
    11:00 +27°C° 0 mm 4 m/s 755 mmHg 38%
    12:00 +28°C° 0 mm 4 m/s 755 mmHg 35%
    13:00 +29°C° 0 mm 4 m/s 755 mmHg 33%
    14:00 +29°C° 0 mm 3 m/s 755 mmHg 30%
    15:00 +29°C° 0 mm 3 m/s 754 mmHg 30%
    16:00 +29°C° 0 mm 3 m/s 754 mmHg 31%
    17:00 +28°C° 0 mm 3 m/s 754 mmHg 31%
    18:00 +26°C° 0 mm 3 m/s 754 mmHg 36%
    19:00 +24°C° 0 mm 3 m/s 755 mmHg 42%
    20:00 +21°C° 0 mm 4 m/s 755 mmHg 48%
    21:00 +21°C° 0 mm 4 m/s 755 mmHg 55%
    22:00 +20°C° 0 mm 4 m/s 755 mmHg 63%
    23:00 +19°C° 0 mm 4 m/s 755 mmHg 70%

    Demain, 26 Août, Lundi

    Heure Température Précipitation Vent Pression Humidité
    00:00 +19°C° 0 mm 3 m/s 755 mmHg 74%
    01:00 +18°C° 0 mm 3 m/s 755 mmHg 79%
    02:00 +18°C° 0 mm 3 m/s 755 mmHg 83%
    03:00 +17°C° 0 mm 3 m/s 755 mmHg 84%
    04:00 +17°C° 0 mm 3 m/s 755 mmHg 85%
    05:00 +17°C° 0 mm 3 m/s 755 mmHg 86%
    06:00 +19°C° 0 mm 3 m/s 756 mmHg 79%
    07:00 +20°C° 0 mm 3 m/s 756 mmHg 71%
    08:00 +22°C° 0 mm 3 m/s 756 mmHg 64%
    09:00 +24°C° 0 mm 3 m/s 756 mmHg 58%
    10:00 +26°C° 0 mm 3 m/s 756 mmHg 53%
    11:00 +27°C° 0 mm 3 m/s 756 mmHg 48%
    12:00 +28°C° 0 mm 3 m/s 755 mmHg 45%
    13:00 +28°C° 0 mm 3 m/s 755 mmHg 41%
    14:00 +29°C° 0 mm 3 m/s 755 mmHg 38%
    15:00 +29°C° 0 mm 3 m/s 755 mmHg 38%
    16:00 +28°C° 0 mm 3 m/s 754 mmHg 38%
    17:00 +28°C° 0 mm 3 m/s 754 mmHg 38%
    18:00 +26°C° 0 mm 3 m/s 754 mmHg 43%
    19:00 +24°C° 0 mm 3 m/s 754 mmHg 49%
    20:00 +22°C° 0 mm 3 m/s 754 mmHg 54%
    21:00 +21°C° 0 mm 3 m/s 754 mmHg 55%
    22:00 +20°C° 0 mm 3 m/s 754 mmHg 56%
    23:00 +19°C° 0 mm 3 m/s 754 mmHg 57%

    Après-demain, 27 Août, Mardi

    Heure Température Précipitation Vent Pression Humidité
    00:00 +19°C° 0 mm 3 m/s 754 mmHg 59%
    01:00 +18°C° 0 mm 2 m/s 754 mmHg 60%
    02:00 +18°C° 0 mm 2 m/s 754 mmHg 62%
    03:00 +17°C° 0 mm 2 m/s 754 mmHg 64%
    04:00 +16°C° 0 mm 1 m/s 754 mmHg 66%
    05:00 +16°C° 0 mm 1 m/s 754 mmHg 68%
    06:00 +18°C° 0 mm 2 m/s 754 mmHg 62%
    07:00 +20°C° 0 mm 2 m/s 754 mmHg 57%
    08:00 +22°C° 0 mm 3 m/s 754 mmHg 51%
    09:00 +24°C° 0 mm 3 m/s 754 mmHg 46%
    10:00 +25°C° 0 mm 3 m/s 754 mmHg 42%
    11:00 +27°C° 0 mm 3 m/s 754 mmHg 38%
    12:00 +28°C° 0 mm 3 m/s 754 mmHg 35%
    13:00 +28°C° 0 mm 3 m/s 753 mmHg 32%
    14:00 +29°C° 0 mm 3 m/s 753 mmHg 29%
    15:00 +29°C° 0 mm 4 m/s 753 mmHg 31%
    16:00 +28°C° 0 mm 4 m/s 753 mmHg 32%
    17:00 +28°C° 0 mm 4 m/s 753 mmHg 33%
    18:00 +26°C° 0 mm 4 m/s 753 mmHg 39%
    19:00 +24°C° 0 mm 3 m/s 753 mmHg 46%
    20:00 +21°C° 0 mm 3 m/s 753 mmHg 52%
    21:00 +20°C° 0 mm 3 m/s 753 mmHg 56%
    22:00 +19°C° 0 mm 2 m/s 753 mmHg 60%
    23:00 +19°C° 0 mm 2 m/s 753 mmHg 64%

    28 Août, Mercredi

    Heure Température Précipitation Vent Pression Humidité
    00:00 +18°C° 0 mm 2 m/s 753 mmHg 67%
    01:00 +18°C° 0 mm 2 m/s 753 mmHg 71%
    02:00 +17°C° 0 mm 2 m/s 753 mmHg 74%
    03:00 +17°C° 0 mm 2 m/s 753 mmHg 78%
    04:00 +17°C° 0 mm 2 m/s 753 mmHg 83%
    05:00 +16°C° 0 mm 2 m/s 753 mmHg 88%
    06:00 +18°C° 0 mm 3 m/s 753 mmHg 81%
    07:00 +20°C° 0 mm 3 m/s 753 mmHg 74%
    08:00 +22°C° 0 mm 3 m/s 753 mmHg 67%
    09:00 +23°C° 0 mm 4 m/s 753 mmHg 60%
    10:00 +25°C° 0 mm 4 m/s 753 mmHg 54%
    11:00 +26°C° 0 mm 4 m/s 753 mmHg 48%
    12:00 +27°C° 0 mm 4 m/s 753 mmHg 45%
    13:00 +27°C° 0 mm 4 m/s 752 mmHg 43%
    14:00 +27°C° 0 mm 4 m/s 752 mmHg 41%
    15:00 +27°C° 0 mm 4 m/s 752 mmHg 40%
    16:00 +27°C° 0 mm 4 m/s 752 mmHg 39%
    17:00 +27°C° 0 mm 4 m/s 752 mmHg 38%
    18:00 +25°C° 0 mm 4 m/s 752 mmHg 43%
    19:00 +22°C° 0 mm 4 m/s 752 mmHg 48%
    20:00 +20°C° 0 mm 4 m/s 752 mmHg 53%
    21:00 +19°C° 0 mm 4 m/s 753 mmHg 54%
    22:00 +19°C° 0 mm 4 m/s 753 mmHg 55%
    23:00 +17°C° 0 mm 5 m/s 753 mmHg 56%

    29 Août, Jeudi

    Heure Température Précipitation Vent Pression Humidité
    00:00 +17°C° 0 mm 4 m/s 753 mmHg 56%
    01:00 +15°C° 0 mm 4 m/s 753 mmHg 56%
    02:00 +16°C° 0 mm 3 m/s 753 mmHg 56%
    03:00 +14°C° 0 mm 3 m/s 753 mmHg 59%
    04:00 +13°C° 0 mm 3 m/s 753 mmHg 62%
    05:00 +12°C° 0 mm 3 m/s 754 mmHg 65%
    06:00 +14°C° 0 mm 4 m/s 754 mmHg 60%
    07:00 +15°C° 0 mm 4 m/s 754 mmHg 56%
    08:00 +17°C° 0 mm 4 m/s 754 mmHg 51%
    09:00 +18°C° 0 mm 4 m/s 754 mmHg 46%
    10:00 +19°C° 0 mm 5 m/s 754 mmHg 41%
    11:00 +21°C° 0 mm 5 m/s 754 mmHg 37%
    12:00 +21°C° 0 mm 4 m/s 754 mmHg 34%
    13:00 +22°C° 0 mm 4 m/s 754 mmHg 31%
    14:00 +22°C° 0 mm 4 m/s 753 mmHg 28%
    15:00 +22°C° 0 mm 4 m/s 753 mmHg 29%
    16:00 +21°C° 0 mm 4 m/s 753 mmHg 30%
    17:00 +21°C° 0 mm 4 m/s 753 mmHg 32%
    18:00 +19°C° 0 mm 4 m/s 753 mmHg 37%
    19:00 +17°C° 0 mm 4 m/s 753 mmHg 42%
    20:00 +15°C° 0 mm 4 m/s 753 mmHg 46%
    21:00 +14°C° 0 mm 4 m/s 754 mmHg 50%
    22:00 +14°C° 0 mm 4 m/s 754 mmHg 53%
    23:00 +13°C° 0 mm 4 m/s 754 mmHg 57%

    30 Août, Vendredi

    Heure Température Précipitation Vent Pression Humidité
    00:00 +13°C° 0 mm 4 m/s 754 mmHg 60%
    01:00 +12°C° 0 mm 4 m/s 754 mmHg 62%
    02:00 +12°C° 0 mm 3 m/s 754 mmHg 65%
    03:00 +11°C° 0 mm 3 m/s 755 mmHg 68%
    04:00 +10°C° 0 mm 3 m/s 755 mmHg 70%
    05:00 +10°C° 0 mm 3 m/s 755 mmHg 73%
    06:00 +12°C° 0 mm 3 m/s 755 mmHg 67%
    07:00 +13°C° 0 mm 3 m/s 755 mmHg 60%
    08:00 +15°C° 0 mm 4 m/s 755 mmHg 54%
    09:00 +17°C° 0 mm 4 m/s 755 mmHg 47%
    10:00 +19°C° 0 mm 4 m/s 755 mmHg 41%
    11:00 +20°C° 0 mm 5 m/s 755 mmHg 34%
    12:00 +21°C° 0 mm 4 m/s 755 mmHg 30%
    13:00 +21°C° 0 mm 4 m/s 755 mmHg 27%
    14:00 +22°C° 0 mm 4 m/s 754 mmHg 23%
    15:00 +22°C° 0 mm 3 m/s 754 mmHg 23%
    16:00 +22°C° 0 mm 3 m/s 754 mmHg 24%
    17:00 +21°C° 0 mm 2 m/s 754 mmHg 24%
    18:00 +19°C° 0 mm 3 m/s 754 mmHg 29%
    19:00 +17°C° 0 mm 3 m/s 754 mmHg 34%
    20:00 +14°C° 0 mm 3 m/s 754 mmHg 39%
    21:00 +14°C° 0 mm 3 m/s 754 mmHg 42%
    22:00 +13°C° 0 mm 3 m/s 754 mmHg 45%
    23:00 +13°C° 0 mm 3 m/s 755 mmHg 48%
    Voir plus